Year,Month,Day,Hour,Minute,Value (Times are PST for windspeed in km/hr)
2010,06,02,00,00,7.90
2010,06,02,00,01,6.70
2010,06,02,00,02,8.40
2010,06,02,00,03,13.10
2010,06,02,00,04,8.10
2010,06,02,00,05,11.00
2010,06,02,00,06,12.90
2010,06,02,00,07,11.10
2010,06,02,00,08,11.80
2010,06,02,00,09,12.10
2010,06,02,00,10,16.20
2010,06,02,00,11,14.70
2010,06,02,00,12,14.70
2010,06,02,00,13,13.50
2010,06,02,00,14,19.10
2010,06,02,00,15,17.30
2010,06,02,00,16,17.30
2010,06,02,00,17,19.40
2010,06,02,00,18,17.10
2010,06,02,00,19,13.70
2010,06,02,00,20,17.80
2010,06,02,00,21,13.40
2010,06,02,00,22,10.30
2010,06,02,00,23,15.10
2010,06,02,00,24,13.00
2010,06,02,00,25,10.40
2010,06,02,00,26,12.50
2010,06,02,00,27,8.80
2010,06,02,00,28,7.80
2010,06,02,00,29,11.50
2010,06,02,00,30,13.00
2010,06,02,00,31,9.30
2010,06,02,00,32,9.70
2010,06,02,00,33,12.00
2010,06,02,00,34,10.20
2010,06,02,00,35,11.50
2010,06,02,00,36,9.60
2010,06,02,00,37,7.30
2010,06,02,00,38,9.10
2010,06,02,00,39,12.60
2010,06,02,00,40,7.70
2010,06,02,00,41,7.60
2010,06,02,00,42,7.60
2010,06,02,00,43,9.20
2010,06,02,00,44,8.90
2010,06,02,00,45,9.30
2010,06,02,00,46,9.40
2010,06,02,00,47,8.00
2010,06,02,00,48,8.50
2010,06,02,00,49,11.60
2010,06,02,00,50,9.30
2010,06,02,00,51,10.90
2010,06,02,00,52,10.10
2010,06,02,00,53,7.40
2010,06,02,00,54,6.70
2010,06,02,00,55,6.50
2010,06,02,00,56,6.40
2010,06,02,00,57,7.40
2010,06,02,00,58,5.30
2010,06,02,00,59,8.70
2010,06,02,01,00,8.50
2010,06,02,01,01,8.40
2010,06,02,01,02,6.60
2010,06,02,01,03,4.30
2010,06,02,01,04,5.10
2010,06,02,01,05,7.00
2010,06,02,01,06,7.60
2010,06,02,01,07,8.80
2010,06,02,01,08,12.90
2010,06,02,01,09,9.30
2010,06,02,01,10,9.30
2010,06,02,01,11,7.20
2010,06,02,01,12,7.30
2010,06,02,01,13,9.60
2010,06,02,01,14,5.60
2010,06,02,01,15,11.30
2010,06,02,01,16,9.60
2010,06,02,01,17,7.50
2010,06,02,01,18,12.60
2010,06,02,01,19,8.70
2010,06,02,01,20,7.20
2010,06,02,01,21,8.80
2010,06,02,01,22,6.00
2010,06,02,01,23,3.30
2010,06,02,01,24,7.50
2010,06,02,01,25,8.80
2010,06,02,01,26,9.70
2010,06,02,01,27,6.90
2010,06,02,01,28,6.80
2010,06,02,01,29,10.90
2010,06,02,01,30,5.40
2010,06,02,01,31,10.20
2010,06,02,01,32,12.40
2010,06,02,01,33,11.10
2010,06,02,01,34,8.30
2010,06,02,01,35,10.00
2010,06,02,01,36,8.20
2010,06,02,01,37,5.30
2010,06,02,01,38,6.70
2010,06,02,01,39,9.80
2010,06,02,01,40,6.80
2010,06,02,01,41,9.70
2010,06,02,01,42,10.20
2010,06,02,01,43,8.10
2010,06,02,01,44,7.50
2010,06,02,01,45,7.00
2010,06,02,01,46,11.80
2010,06,02,01,47,6.70
2010,06,02,01,48,9.70
2010,06,02,01,49,9.70
2010,06,02,01,50,6.70
2010,06,02,01,51,9.40
2010,06,02,01,52,9.20
2010,06,02,01,53,9.40
2010,06,02,01,54,7.00
2010,06,02,01,55,6.50
2010,06,02,01,56,7.20
2010,06,02,01,57,7.90
2010,06,02,01,58,10.50
2010,06,02,01,59,6.90
2010,06,02,02,00,7.40
2010,06,02,02,01,8.20
2010,06,02,02,02,11.30
2010,06,02,02,03,7.30
2010,06,02,02,04,7.30
2010,06,02,02,05,6.40
2010,06,02,02,06,6.60
2010,06,02,02,07,3.70
2010,06,02,02,08,2.20
2010,06,02,02,09,2.70
2010,06,02,02,10,3.60
2010,06,02,02,11,1.60
2010,06,02,02,12,5.80
2010,06,02,02,13,5.30
2010,06,02,02,14,3.30
2010,06,02,02,15,0.10
2010,06,02,02,16,3.00
2010,06,02,02,17,5.80
2010,06,02,02,18,3.20
2010,06,02,02,19,2.00
2010,06,02,02,20,0.50
2010,06,02,02,21,2.20
2010,06,02,02,22,3.80
2010,06,02,02,23,4.10
2010,06,02,02,24,2.90
2010,06,02,02,25,0.50
2010,06,02,02,26,2.10
2010,06,02,02,27,3.30
2010,06,02,02,28,2.60
2010,06,02,02,29,4.00
2010,06,02,02,30,0.30
2010,06,02,02,31,0.30
2010,06,02,02,32,3.80
2010,06,02,02,33,4.70
2010,06,02,02,34,1.60
2010,06,02,02,35,0.50
2010,06,02,02,36,1.70
2010,06,02,02,37,0.40
2010,06,02,02,38,0.10
2010,06,02,02,39,0.00
2010,06,02,02,40,2.80
2010,06,02,02,41,3.10
2010,06,02,02,42,3.00
2010,06,02,02,43,3.60
2010,06,02,02,44,3.80
2010,06,02,02,45,2.80
2010,06,02,02,46,1.30
2010,06,02,02,47,0.90
2010,06,02,02,48,0.20
2010,06,02,02,49,0.70
2010,06,02,02,50,0.60
2010,06,02,02,51,2.80
2010,06,02,02,52,1.20
2010,06,02,02,53,0.80
2010,06,02,02,54,1.90
2010,06,02,02,55,1.30
2010,06,02,02,56,0.50
2010,06,02,02,57,0.80
2010,06,02,02,58,0.40
2010,06,02,02,59,0.20
2010,06,02,03,00,1.50
2010,06,02,03,01,1.40
2010,06,02,03,02,1.80
2010,06,02,03,03,0.60
2010,06,02,03,04,2.20
2010,06,02,03,05,1.20
2010,06,02,03,06,0.90
2010,06,02,03,07,0.70
2010,06,02,03,08,1.70
2010,06,02,03,09,2.70
2010,06,02,03,10,2.10
2010,06,02,03,11,3.30
2010,06,02,03,12,2.90
2010,06,02,03,13,4.10
2010,06,02,03,14,3.90
2010,06,02,03,15,3.90
2010,06,02,03,16,3.40
2010,06,02,03,17,2.20
2010,06,02,03,18,0.40
2010,06,02,03,19,2.30
2010,06,02,03,20,0.50
2010,06,02,03,21,0.00
2010,06,02,03,22,0.00
2010,06,02,03,23,0.00
2010,06,02,03,24,1.30
2010,06,02,03,25,2.10
2010,06,02,03,26,1.90
2010,06,02,03,27,0.70
2010,06,02,03,28,1.60
2010,06,02,03,29,1.50
2010,06,02,03,30,0.90
2010,06,02,03,31,1.10
2010,06,02,03,32,1.90
2010,06,02,03,33,0.60
2010,06,02,03,34,0.00
2010,06,02,03,35,0.00
2010,06,02,03,36,0.00
2010,06,02,03,37,0.10
2010,06,02,03,38,0.00
2010,06,02,03,39,0.00
2010,06,02,03,40,0.00
2010,06,02,03,41,0.00
2010,06,02,03,42,0.00
2010,06,02,03,43,0.00
2010,06,02,03,44,0.00
2010,06,02,03,45,0.00
2010,06,02,03,46,0.00
2010,06,02,03,47,0.00
2010,06,02,03,48,0.00
2010,06,02,03,49,0.30
2010,06,02,03,50,0.30
2010,06,02,03,51,0.00
2010,06,02,03,52,0.00
2010,06,02,03,53,0.70
2010,06,02,03,54,1.60
2010,06,02,03,55,0.40
2010,06,02,03,56,0.90
2010,06,02,03,57,2.40
2010,06,02,03,58,0.90
2010,06,02,03,59,2.10
2010,06,02,04,00,1.00
2010,06,02,04,01,1.40
2010,06,02,04,02,3.00
2010,06,02,04,03,4.20
2010,06,02,04,04,1.00
2010,06,02,04,05,1.90
2010,06,02,04,06,0.80
2010,06,02,04,07,0.60
2010,06,02,04,08,0.10
2010,06,02,04,09,0.00
2010,06,02,04,10,0.00
2010,06,02,04,11,0.00
2010,06,02,04,12,0.00
2010,06,02,04,13,0.00
2010,06,02,04,14,0.00
2010,06,02,04,15,0.00
2010,06,02,04,16,0.30
2010,06,02,04,17,0.40
2010,06,02,04,18,0.00
2010,06,02,04,19,0.00
2010,06,02,04,20,1.10
2010,06,02,04,21,2.20
2010,06,02,04,22,1.10
2010,06,02,04,23,0.00
2010,06,02,04,24,0.00
2010,06,02,04,25,0.00
2010,06,02,04,26,0.00
2010,06,02,04,27,0.00
2010,06,02,04,28,1.30
2010,06,02,04,29,4.00
2010,06,02,04,30,2.80
2010,06,02,04,31,0.00
2010,06,02,04,32,0.00
2010,06,02,04,33,0.00
2010,06,02,04,34,2.90
2010,06,02,04,35,3.70
2010,06,02,04,36,3.90
2010,06,02,04,37,4.40
2010,06,02,04,38,3.60
2010,06,02,04,39,4.80
2010,06,02,04,40,3.20
2010,06,02,04,41,1.00
2010,06,02,04,42,0.00
2010,06,02,04,43,0.60
2010,06,02,04,44,1.50
2010,06,02,04,45,2.20
2010,06,02,04,46,2.30
2010,06,02,04,47,0.10
2010,06,02,04,48,0.00
2010,06,02,04,49,0.00
2010,06,02,04,50,0.00
2010,06,02,04,51,0.00
2010,06,02,04,52,0.00
2010,06,02,04,53,0.00
2010,06,02,04,54,0.00
2010,06,02,04,55,0.00
2010,06,02,04,56,0.70
2010,06,02,04,57,1.10
2010,06,02,04,58,2.50
2010,06,02,04,59,3.40
2010,06,02,05,00,3.80
2010,06,02,05,01,4.10
2010,06,02,05,02,3.10
2010,06,02,05,03,2.30
2010,06,02,05,04,1.40
2010,06,02,05,05,0.20
2010,06,02,05,06,0.20
2010,06,02,05,07,1.30
2010,06,02,05,08,3.10
2010,06,02,05,09,2.00
2010,06,02,05,10,4.20
2010,06,02,05,11,5.00
2010,06,02,05,12,4.30
2010,06,02,05,13,3.80
2010,06,02,05,14,4.40
2010,06,02,05,15,6.00
2010,06,02,05,16,5.20
2010,06,02,05,17,8.10
2010,06,02,05,18,5.60
2010,06,02,05,19,4.50
2010,06,02,05,20,2.70
2010,06,02,05,21,3.20
2010,06,02,05,22,3.60
2010,06,02,05,23,4.10
2010,06,02,05,24,2.10
2010,06,02,05,25,3.20
2010,06,02,05,26,5.40
2010,06,02,05,27,8.00
2010,06,02,05,28,4.60
2010,06,02,05,29,3.30
2010,06,02,05,30,1.70
2010,06,02,05,31,4.90
2010,06,02,05,32,6.50
2010,06,02,05,33,6.80
2010,06,02,05,34,3.10
2010,06,02,05,35,3.10
2010,06,02,05,36,1.60
2010,06,02,05,37,4.00
2010,06,02,05,38,8.80
2010,06,02,05,39,6.40
2010,06,02,05,40,7.70
2010,06,02,05,41,8.80
2010,06,02,05,42,9.70
2010,06,02,05,43,10.90
2010,06,02,05,44,11.00
2010,06,02,05,45,7.60
2010,06,02,05,46,9.30
2010,06,02,05,47,7.70
2010,06,02,05,48,6.90
2010,06,02,05,49,9.20
2010,06,02,05,50,8.10
2010,06,02,05,51,6.90
2010,06,02,05,52,5.10
2010,06,02,05,53,7.70
2010,06,02,05,54,7.10
2010,06,02,05,55,11.00
2010,06,02,05,56,7.50
2010,06,02,05,57,8.00
2010,06,02,05,58,5.00
2010,06,02,05,59,5.20
2010,06,02,06,00,6.90
2010,06,02,06,01,7.80
2010,06,02,06,02,5.60
2010,06,02,06,03,8.10
2010,06,02,06,04,5.80
2010,06,02,06,05,5.60
2010,06,02,06,06,6.10
2010,06,02,06,07,7.50
2010,06,02,06,08,7.90
2010,06,02,06,09,5.90
2010,06,02,06,10,7.50
2010,06,02,06,11,6.30
2010,06,02,06,12,8.00
2010,06,02,06,13,8.40
2010,06,02,06,14,9.60
2010,06,02,06,15,6.60
2010,06,02,06,16,10.90
2010,06,02,06,17,7.60
2010,06,02,06,18,6.60
2010,06,02,06,19,6.60
2010,06,02,06,20,6.10
2010,06,02,06,21,6.70
2010,06,02,06,22,6.10
2010,06,02,06,23,7.90
2010,06,02,06,24,7.20
2010,06,02,06,25,7.70
2010,06,02,06,26,6.10
2010,06,02,06,27,8.10
2010,06,02,06,28,8.60
2010,06,02,06,29,8.70
2010,06,02,06,30,8.10
2010,06,02,06,31,9.00
2010,06,02,06,32,10.40
2010,06,02,06,33,8.10
2010,06,02,06,34,4.30
2010,06,02,06,35,4.10
2010,06,02,06,36,6.60
2010,06,02,06,37,6.40
2010,06,02,06,38,4.00
2010,06,02,06,39,5.20
2010,06,02,06,40,5.40
2010,06,02,06,41,6.80
2010,06,02,06,42,5.70
2010,06,02,06,43,9.00
2010,06,02,06,44,5.90
2010,06,02,06,45,4.10
2010,06,02,06,46,5.20
2010,06,02,06,47,3.70
2010,06,02,06,48,6.70
2010,06,02,06,49,5.70
2010,06,02,06,50,2.90
2010,06,02,06,51,4.10
2010,06,02,06,52,4.40
2010,06,02,06,53,6.90
2010,06,02,06,54,6.40
2010,06,02,06,55,7.00
2010,06,02,06,56,3.80
2010,06,02,06,57,3.00
2010,06,02,06,58,3.90
2010,06,02,06,59,1.60
2010,06,02,07,00,3.70
2010,06,02,07,01,3.40
2010,06,02,07,02,5.80
2010,06,02,07,03,5.20
2010,06,02,07,04,3.60
2010,06,02,07,05,5.90
2010,06,02,07,06,2.50
2010,06,02,07,07,1.50
2010,06,02,07,08,0.00
2010,06,02,07,09,0.00
2010,06,02,07,10,0.10
2010,06,02,07,11,2.50
2010,06,02,07,12,0.10
2010,06,02,07,13,0.20
2010,06,02,07,14,0.00
2010,06,02,07,15,0.00
2010,06,02,07,16,0.10
2010,06,02,07,17,0.70
2010,06,02,07,18,0.10
2010,06,02,07,19,0.00
2010,06,02,07,20,1.20
2010,06,02,07,21,0.10
2010,06,02,07,22,0.30
2010,06,02,07,23,0.40
2010,06,02,07,24,1.20
2010,06,02,07,25,2.90
2010,06,02,07,26,0.30
2010,06,02,07,27,0.30
2010,06,02,07,28,5.60
2010,06,02,07,29,4.90
2010,06,02,07,30,4.70
2010,06,02,07,31,3.70
2010,06,02,07,32,1.40
2010,06,02,07,33,4.50
2010,06,02,07,34,6.80
2010,06,02,07,35,5.40
2010,06,02,07,36,4.00
2010,06,02,07,37,4.00
2010,06,02,07,38,2.30
2010,06,02,07,39,1.10
2010,06,02,07,40,0.80
2010,06,02,07,41,4.80
2010,06,02,07,42,8.20
2010,06,02,07,43,2.70
2010,06,02,07,44,2.00
2010,06,02,07,45,2.70
2010,06,02,07,46,3.60
2010,06,02,07,47,4.20
2010,06,02,07,48,5.10
2010,06,02,07,49,4.70
2010,06,02,07,50,4.40
2010,06,02,07,51,5.00
2010,06,02,07,52,6.70
2010,06,02,07,53,4.80
2010,06,02,07,54,4.30
2010,06,02,07,55,5.90
2010,06,02,07,56,5.60
2010,06,02,07,57,3.60
2010,06,02,07,58,5.10
2010,06,02,07,59,3.20
2010,06,02,08,00,4.10
2010,06,02,08,01,6.50
2010,06,02,08,02,7.40
2010,06,02,08,03,6.30
2010,06,02,08,04,4.40
2010,06,02,08,05,4.20
2010,06,02,08,06,5.30
2010,06,02,08,07,3.60
2010,06,02,08,08,4.60
2010,06,02,08,09,7.50
2010,06,02,08,10,5.80
2010,06,02,08,11,4.70
2010,06,02,08,12,0.60
2010,06,02,08,13,2.90
2010,06,02,08,14,5.60
2010,06,02,08,15,5.80
2010,06,02,08,16,3.90
2010,06,02,08,17,9.20
2010,06,02,08,18,4.70
2010,06,02,08,19,5.40
2010,06,02,08,20,5.60
2010,06,02,08,21,5.80
2010,06,02,08,22,2.70
2010,06,02,08,23,5.70
2010,06,02,08,24,9.60
2010,06,02,08,25,12.00
2010,06,02,08,26,11.50
2010,06,02,08,27,5.90
2010,06,02,08,28,5.40
2010,06,02,08,29,6.50
2010,06,02,08,30,5.50
2010,06,02,08,31,4.30
2010,06,02,08,32,4.50
2010,06,02,08,33,6.00
2010,06,02,08,34,7.90
2010,06,02,08,35,9.80
2010,06,02,08,36,8.20
2010,06,02,08,37,10.20
2010,06,02,08,38,7.70
2010,06,02,08,39,5.80
2010,06,02,08,40,10.60
2010,06,02,08,41,7.60
2010,06,02,08,42,7.90
2010,06,02,08,43,5.30
2010,06,02,08,44,6.50
2010,06,02,08,45,7.80
2010,06,02,08,46,5.20
2010,06,02,08,47,8.60
2010,06,02,08,48,8.50
2010,06,02,08,49,7.30
2010,06,02,08,50,6.90
2010,06,02,08,51,7.50
2010,06,02,08,52,7.00
2010,06,02,08,53,5.50
2010,06,02,08,54,10.40
2010,06,02,08,55,5.80
2010,06,02,08,56,5.90
2010,06,02,08,57,5.10
2010,06,02,08,58,8.50
2010,06,02,08,59,10.50
2010,06,02,09,00,7.50
2010,06,02,09,01,8.40
2010,06,02,09,02,4.00
2010,06,02,09,03,6.00
2010,06,02,09,04,5.90
2010,06,02,09,05,5.60
2010,06,02,09,06,4.70
2010,06,02,09,07,5.30
2010,06,02,09,08,6.00
2010,06,02,09,09,3.80
2010,06,02,09,10,3.60
2010,06,02,09,11,1.40
2010,06,02,09,12,1.20
2010,06,02,09,13,1.10
2010,06,02,09,14,2.00
2010,06,02,09,15,2.50
2010,06,02,09,16,0.90
2010,06,02,09,17,1.60
2010,06,02,09,18,4.40
2010,06,02,09,19,2.10
2010,06,02,09,20,1.70
2010,06,02,09,21,3.10
2010,06,02,09,22,3.70
2010,06,02,09,23,2.70
2010,06,02,09,24,1.40
2010,06,02,09,25,0.20
2010,06,02,09,26,0.00
2010,06,02,09,27,0.30
2010,06,02,09,28,0.50
2010,06,02,09,29,0.90
2010,06,02,09,30,0.40
2010,06,02,09,31,2.70
2010,06,02,09,32,3.50
2010,06,02,09,33,0.90
2010,06,02,09,34,2.80
2010,06,02,09,35,3.60
2010,06,02,09,36,2.00
2010,06,02,09,37,0.80
2010,06,02,09,38,0.80
2010,06,02,09,39,2.00
2010,06,02,09,40,1.70
2010,06,02,09,41,1.90
2010,06,02,09,42,3.10
2010,06,02,09,43,3.20
2010,06,02,09,44,2.50
2010,06,02,09,45,3.10
2010,06,02,09,46,4.30
2010,06,02,09,47,3.70
2010,06,02,09,48,1.40
2010,06,02,09,49,0.00
2010,06,02,09,50,0.20
2010,06,02,09,51,0.50
2010,06,02,09,52,1.20
2010,06,02,09,53,1.50
2010,06,02,09,54,4.70
2010,06,02,09,55,2.90
2010,06,02,09,56,1.40
2010,06,02,09,57,0.60
2010,06,02,09,58,2.10
2010,06,02,09,59,0.20
2010,06,02,10,00,0.20
2010,06,02,10,01,0.30
2010,06,02,10,02,0.80
2010,06,02,10,03,1.10
2010,06,02,10,04,3.60
2010,06,02,10,05,3.90
2010,06,02,10,06,3.60
2010,06,02,10,07,2.00
2010,06,02,10,08,3.10
2010,06,02,10,09,2.90
2010,06,02,10,10,4.80
2010,06,02,10,11,5.60
2010,06,02,10,12,4.30
2010,06,02,10,13,1.70
2010,06,02,10,14,0.20
2010,06,02,10,15,0.40
2010,06,02,10,16,1.90
2010,06,02,10,17,3.60
2010,06,02,10,18,2.30
2010,06,02,10,19,1.20
2010,06,02,10,20,3.10
2010,06,02,10,21,2.30
2010,06,02,10,22,5.00
2010,06,02,10,23,4.50
2010,06,02,10,24,0.20
2010,06,02,10,25,0.00
2010,06,02,10,26,0.00
2010,06,02,10,27,0.00
2010,06,02,10,28,0.30
2010,06,02,10,29,0.20
2010,06,02,10,30,0.20
2010,06,02,10,31,0.60
2010,06,02,10,32,0.50
2010,06,02,10,33,2.50
2010,06,02,10,34,0.50
2010,06,02,10,35,0.30
2010,06,02,10,36,0.10
2010,06,02,10,37,0.80
2010,06,02,10,38,0.20
2010,06,02,10,39,0.00
2010,06,02,10,40,0.10
2010,06,02,10,41,0.50
2010,06,02,10,42,0.30
2010,06,02,10,43,1.80
2010,06,02,10,44,1.50
2010,06,02,10,45,0.50
2010,06,02,10,46,0.40
2010,06,02,10,47,1.20
2010,06,02,10,48,1.70
2010,06,02,10,49,3.60
2010,06,02,10,50,1.80
2010,06,02,10,51,0.60
2010,06,02,10,52,0.30
2010,06,02,10,53,1.60
2010,06,02,10,54,1.10
2010,06,02,10,55,1.00
2010,06,02,10,56,2.60
2010,06,02,10,57,1.40
2010,06,02,10,58,0.20
2010,06,02,10,59,0.10
2010,06,02,11,00,1.20
2010,06,02,11,01,0.10
2010,06,02,11,02,0.30
2010,06,02,11,03,0.30
2010,06,02,11,04,1.60
2010,06,02,11,05,0.00
2010,06,02,11,06,0.60
2010,06,02,11,07,3.40
2010,06,02,11,08,3.50
2010,06,02,11,09,1.50
2010,06,02,11,10,1.20
2010,06,02,11,11,2.60
2010,06,02,11,12,2.00
2010,06,02,11,13,0.70
2010,06,02,11,14,0.20
2010,06,02,11,15,1.90
2010,06,02,11,16,6.90
2010,06,02,11,17,5.90
2010,06,02,11,18,4.50
2010,06,02,11,19,5.10
2010,06,02,11,20,3.50
2010,06,02,11,21,4.40
2010,06,02,11,22,3.50
2010,06,02,11,23,4.30
2010,06,02,11,24,3.70
2010,06,02,11,25,4.50
2010,06,02,11,26,5.80
2010,06,02,11,27,6.20
2010,06,02,11,28,3.30
2010,06,02,11,29,3.90
2010,06,02,11,30,2.10
2010,06,02,11,31,3.30
2010,06,02,11,32,3.20
2010,06,02,11,33,3.50
2010,06,02,11,34,3.70
2010,06,02,11,35,3.80
2010,06,02,11,36,5.40
2010,06,02,11,37,2.40
2010,06,02,11,38,2.90
2010,06,02,11,39,2.60
2010,06,02,11,40,2.70
2010,06,02,11,41,0.50
2010,06,02,11,42,1.90
2010,06,02,11,43,3.30
2010,06,02,11,44,3.20
2010,06,02,11,45,5.90
2010,06,02,11,46,4.50
2010,06,02,11,47,1.90
2010,06,02,11,48,1.40
2010,06,02,11,49,6.50
2010,06,02,11,50,8.10
2010,06,02,11,51,5.60
2010,06,02,11,52,5.20
2010,06,02,11,53,5.10
2010,06,02,11,54,4.20
2010,06,02,11,55,4.70
2010,06,02,11,56,2.70
2010,06,02,11,57,3.50
2010,06,02,11,58,2.80
2010,06,02,11,59,1.30
2010,06,02,12,00,2.80
2010,06,02,12,01,1.80
2010,06,02,12,02,3.10
2010,06,02,12,03,2.50
2010,06,02,12,04,3.40
2010,06,02,12,05,3.70
2010,06,02,12,06,9.00
2010,06,02,12,07,7.60
2010,06,02,12,08,3.60
2010,06,02,12,09,2.60
2010,06,02,12,10,4.20
2010,06,02,12,11,3.20
2010,06,02,12,12,3.80
2010,06,02,12,13,1.40
2010,06,02,12,14,3.60
2010,06,02,12,15,8.10
2010,06,02,12,16,7.90
2010,06,02,12,17,5.30
2010,06,02,12,18,4.80
2010,06,02,12,19,8.70
2010,06,02,12,20,9.40
2010,06,02,12,21,6.10
2010,06,02,12,22,5.90
2010,06,02,12,23,4.50
2010,06,02,12,24,4.40
2010,06,02,12,25,4.10
2010,06,02,12,26,8.70
2010,06,02,12,27,5.20
2010,06,02,12,28,10.20
2010,06,02,12,29,3.20
2010,06,02,12,30,1.40
2010,06,02,12,31,9.50
2010,06,02,12,32,10.20
2010,06,02,12,33,5.70
2010,06,02,12,34,6.20
2010,06,02,12,35,7.00
2010,06,02,12,36,6.50
2010,06,02,12,37,3.60
2010,06,02,12,38,15.60
2010,06,02,12,39,7.80
2010,06,02,12,40,12.20
2010,06,02,12,41,13.70
2010,06,02,12,42,9.00
2010,06,02,12,43,8.70
2010,06,02,12,44,9.70
2010,06,02,12,45,8.70
2010,06,02,12,46,12.40
2010,06,02,12,47,13.60
2010,06,02,12,48,6.70
2010,06,02,12,49,6.80
2010,06,02,12,50,12.50
2010,06,02,12,51,13.50
2010,06,02,12,52,13.80
2010,06,02,12,53,10.10
2010,06,02,12,54,20.20
2010,06,02,12,55,15.90
2010,06,02,12,56,10.20
2010,06,02,12,57,5.10
2010,06,02,12,58,8.00
2010,06,02,12,59,14.50
2010,06,02,13,00,12.00
2010,06,02,13,01,16.10
2010,06,02,13,02,15.10
2010,06,02,13,03,15.20
2010,06,02,13,04,14.90
2010,06,02,13,05,8.80
2010,06,02,13,06,9.10
2010,06,02,13,07,12.20
2010,06,02,13,08,18.90
2010,06,02,13,09,11.40
2010,06,02,13,10,6.00
2010,06,02,13,11,6.40
2010,06,02,13,12,6.90
2010,06,02,13,13,11.30
2010,06,02,13,14,14.00
2010,06,02,13,15,10.30
2010,06,02,13,16,11.80
2010,06,02,13,17,17.40
2010,06,02,13,18,17.10
2010,06,02,13,19,13.40
2010,06,02,13,20,7.80
2010,06,02,13,21,9.10
2010,06,02,13,22,16.50
2010,06,02,13,23,10.40
2010,06,02,13,24,12.20
2010,06,02,13,25,11.20
2010,06,02,13,26,13.20
2010,06,02,13,27,13.00
2010,06,02,13,28,12.80
2010,06,02,13,29,14.40
2010,06,02,13,30,8.90
2010,06,02,13,31,8.90
2010,06,02,13,32,3.90
2010,06,02,13,33,16.10
2010,06,02,13,34,14.10
2010,06,02,13,35,12.20
2010,06,02,13,36,13.40
2010,06,02,13,37,11.20
2010,06,02,13,38,9.40
2010,06,02,13,39,12.00
2010,06,02,13,40,13.50
2010,06,02,13,41,10.80
2010,06,02,13,42,14.50
2010,06,02,13,43,20.70
2010,06,02,13,44,10.10
2010,06,02,13,45,7.20
2010,06,02,13,46,12.50
2010,06,02,13,47,24.30
2010,06,02,13,48,16.00
2010,06,02,13,49,23.00
2010,06,02,13,50,19.90
2010,06,02,13,51,17.20
2010,06,02,13,52,13.90
2010,06,02,13,53,11.90
2010,06,02,13,54,10.70
2010,06,02,13,55,8.90
2010,06,02,13,56,10.40
2010,06,02,13,57,14.90
2010,06,02,13,58,18.60
2010,06,02,13,59,18.10
2010,06,02,14,00,20.20
2010,06,02,14,01,20.80
2010,06,02,14,02,14.20
2010,06,02,14,03,17.90
2010,06,02,14,04,15.00
2010,06,02,14,05,21.20
2010,06,02,14,06,20.10
2010,06,02,14,07,14.90
2010,06,02,14,08,16.20
2010,06,02,14,09,16.20
2010,06,02,14,10,27.80
2010,06,02,14,11,22.60
2010,06,02,14,12,22.80
2010,06,02,14,13,20.20
2010,06,02,14,14,23.90
2010,06,02,14,15,16.30
2010,06,02,14,16,13.30
2010,06,02,14,17,13.60
2010,06,02,14,18,9.90
2010,06,02,14,19,7.30
2010,06,02,14,20,10.70
2010,06,02,14,21,18.20
2010,06,02,14,22,13.80
2010,06,02,14,23,10.30
2010,06,02,14,24,11.80
2010,06,02,14,25,13.00
2010,06,02,14,26,21.70
2010,06,02,14,27,16.10
2010,06,02,14,28,14.60
2010,06,02,14,29,13.40
2010,06,02,14,30,10.90
2010,06,02,14,31,10.70
2010,06,02,14,32,12.50
2010,06,02,14,33,17.60
2010,06,02,14,34,15.90
2010,06,02,14,35,18.40
2010,06,02,14,36,11.50
2010,06,02,14,37,17.40
2010,06,02,14,38,21.50
2010,06,02,14,39,23.30
2010,06,02,14,40,18.60
2010,06,02,14,41,16.80
2010,06,02,14,42,26.80
2010,06,02,14,43,24.60
2010,06,02,14,44,21.90
2010,06,02,14,45,17.30
2010,06,02,14,46,14.10
2010,06,02,14,47,13.10
2010,06,02,14,48,18.30
2010,06,02,14,49,27.10
2010,06,02,14,50,25.00
2010,06,02,14,51,25.90
2010,06,02,14,52,16.70
2010,06,02,14,53,9.70
2010,06,02,14,54,16.70
2010,06,02,14,55,26.10
2010,06,02,14,56,17.90
2010,06,02,14,57,20.20
2010,06,02,14,58,27.50
2010,06,02,14,59,15.20
2010,06,02,15,00,14.10
2010,06,02,15,01,17.70
2010,06,02,15,02,22.60
2010,06,02,15,03,24.10
2010,06,02,15,04,29.80
2010,06,02,15,05,28.50
2010,06,02,15,06,20.70
2010,06,02,15,07,17.00
2010,06,02,15,08,25.20
2010,06,02,15,09,19.40
2010,06,02,15,10,22.60
2010,06,02,15,11,23.70
2010,06,02,15,12,24.70
2010,06,02,15,13,34.80
2010,06,02,15,14,27.10
2010,06,02,15,15,19.10
2010,06,02,15,16,25.00
2010,06,02,15,17,27.30
2010,06,02,15,18,20.90
2010,06,02,15,19,22.10
2010,06,02,15,20,19.80
2010,06,02,15,21,17.90
2010,06,02,15,22,17.40
2010,06,02,15,23,17.00
2010,06,02,15,24,19.40
2010,06,02,15,25,22.40
2010,06,02,15,26,18.50
2010,06,02,15,27,28.90
2010,06,02,15,28,29.90
2010,06,02,15,29,28.50
2010,06,02,15,30,26.00
2010,06,02,15,31,22.00
2010,06,02,15,32,22.90
2010,06,02,15,33,16.70
2010,06,02,15,34,28.90
2010,06,02,15,35,29.10
2010,06,02,15,36,25.00
2010,06,02,15,37,30.70
2010,06,02,15,38,27.30
2010,06,02,15,39,25.70
2010,06,02,15,40,28.20
2010,06,02,15,41,16.50
2010,06,02,15,42,17.90
2010,06,02,15,43,27.20
2010,06,02,15,44,23.50
2010,06,02,15,45,19.70
2010,06,02,15,46,18.50
2010,06,02,15,47,19.50
2010,06,02,15,48,21.90
2010,06,02,15,49,26.60
2010,06,02,15,50,25.40
2010,06,02,15,51,29.40
2010,06,02,15,52,27.60
2010,06,02,15,53,32.20
2010,06,02,15,54,25.10
2010,06,02,15,55,17.70
2010,06,02,15,56,25.00
2010,06,02,15,57,12.30
2010,06,02,15,58,17.90
2010,06,02,15,59,16.60
2010,06,02,16,00,20.00
2010,06,02,16,01,12.40
2010,06,02,16,02,8.70
2010,06,02,16,03,10.90
2010,06,02,16,04,20.70
2010,06,02,16,05,20.70
2010,06,02,16,06,20.20
2010,06,02,16,07,22.40
2010,06,02,16,08,19.60
2010,06,02,16,09,21.30
2010,06,02,16,10,20.00
2010,06,02,16,11,14.60
2010,06,02,16,12,26.40
2010,06,02,16,13,22.80
2010,06,02,16,14,21.10
2010,06,02,16,15,13.60
2010,06,02,16,16,15.70
2010,06,02,16,17,15.40
2010,06,02,16,18,18.50
2010,06,02,16,19,19.10
2010,06,02,16,20,26.90
2010,06,02,16,21,24.10
2010,06,02,16,22,21.40
2010,06,02,16,23,28.00
2010,06,02,16,24,21.30
2010,06,02,16,25,30.00
2010,06,02,16,26,28.90
2010,06,02,16,27,29.00
2010,06,02,16,28,23.50
2010,06,02,16,29,26.50
2010,06,02,16,30,23.50
2010,06,02,16,31,22.30
2010,06,02,16,32,28.80
2010,06,02,16,33,32.30
2010,06,02,16,34,27.60
2010,06,02,16,35,21.30
2010,06,02,16,36,19.50
2010,06,02,16,37,28.50
2010,06,02,16,38,25.40
2010,06,02,16,39,28.40
2010,06,02,16,40,29.90
2010,06,02,16,41,19.70
2010,06,02,16,42,20.60
2010,06,02,16,43,37.90
2010,06,02,16,44,26.00
2010,06,02,16,45,26.60
2010,06,02,16,46,33.90
2010,06,02,16,47,30.40
2010,06,02,16,48,30.90
2010,06,02,16,49,33.60
2010,06,02,16,50,23.50
2010,06,02,16,51,33.60
2010,06,02,16,52,21.40
2010,06,02,16,53,22.70
2010,06,02,16,54,20.80
2010,06,02,16,55,24.00
2010,06,02,16,56,20.70
2010,06,02,16,57,22.40
2010,06,02,16,58,24.90
2010,06,02,16,59,19.40
2010,06,02,17,00,25.90
2010,06,02,17,01,27.30
2010,06,02,17,02,32.70
2010,06,02,17,03,22.70
2010,06,02,17,04,26.40
2010,06,02,17,05,28.20
2010,06,02,17,06,28.50
2010,06,02,17,07,25.90
2010,06,02,17,08,34.20
2010,06,02,17,09,22.50
2010,06,02,17,10,27.70
2010,06,02,17,11,26.70
2010,06,02,17,12,24.60
2010,06,02,17,13,29.00
2010,06,02,17,14,27.00
2010,06,02,17,15,35.80
2010,06,02,17,16,36.20
2010,06,02,17,17,31.30
2010,06,02,17,18,20.80
2010,06,02,17,19,27.90
2010,06,02,17,20,23.60
2010,06,02,17,21,30.70
2010,06,02,17,22,40.20
2010,06,02,17,23,32.70
2010,06,02,17,24,32.70
2010,06,02,17,25,32.40
2010,06,02,17,26,33.90
2010,06,02,17,27,31.40
2010,06,02,17,28,27.40
2010,06,02,17,29,37.50
2010,06,02,17,30,31.20
2010,06,02,17,31,27.50
2010,06,02,17,32,24.40
2010,06,02,17,33,21.40
2010,06,02,17,34,34.10
2010,06,02,17,35,28.50
2010,06,02,17,36,35.30
2010,06,02,17,37,34.80
2010,06,02,17,38,24.60
2010,06,02,17,39,25.40
2010,06,02,17,40,34.00
2010,06,02,17,41,32.10
2010,06,02,17,42,35.10
2010,06,02,17,43,36.90
2010,06,02,17,44,34.70
2010,06,02,17,45,35.50
2010,06,02,17,46,45.10
2010,06,02,17,47,29.70
2010,06,02,17,48,23.70
2010,06,02,17,49,25.80
2010,06,02,17,50,36.00